Weather History for Ogallala, NE

Change the Weather History Date:

Thursday, September 19, 2013

  Actual Average Record
Temperature  
Mean Temperature 59 °F -  
Max Temperature 69 °F 77 °F 97 °F (1984)
Min Temperature 49 °F 46 °F 29 °F (1971)
Degree Days  
Heating Degree Days 6    
Growing Degree Days 9 (Base 50)    
Moisture  
Dew Point 51 °F    
Average Humidity 70    
Maximum Humidity 87    
Minimum Humidity 44    
Precipitation  
Precipitation 0.10 in - - ()
Sea Level Pressure  
Sea Level Pressure 30.01 in    
Wind  
Wind Speed 10 mph (North)    
Max Wind Speed 25 mph    
Max Gust Speed 33 mph    
Visibility 10 miles    
Events Rain    
Averages and records for this station are not official NWS values.
T = Trace of Precipitation, MM = Missing Value Source: NWS Daily Summary

Daily Weather History Graph

Daily Weather History Graph

Search for Another Location

Airport:

Trip Planner

Search our weather history database for the weather conditions in past years. The results will help you decide how hot, cold, wet, or windy it might be!

Date:

Astronomy

Sep. 19, 2013 Rise Set
Actual Time 6:31 AM MDT 6:48 PM MDT
Civil Twilight 6:04 AM MDT 7:16 PM MDT
Nautical Twilight 5:31 AM MDT 7:48 PM MDT
Astronomical Twilight 4:58 AM MDT 8:21 PM MDT
Moon 6:47 PM MDT (9/19) 6:43 AM MDT (9/19)
Length of Visible Light 13h 12m
Length of Day
12h 17m
Full, 100% of the Moon is Illuminated
Sep 19
Full
Sep 26
Last Quarter
Oct 4
New
Oct 11
First Quarter
Oct 18
Full

Hourly Weather History & Observations

Time (MDT) Temp. Dew Point Humidity Pressure Visibility Wind Dir Wind Speed Gust Speed Precip Events Conditions
12:15 AM 64.8 °F 57.0 °F 76% 29.81 in 10.0 mi ENE 9.2 mph - N/A   Clear
12:35 AM 63.5 °F 57.4 °F 80% 29.79 in 10.0 mi ENE 6.9 mph - N/A   Clear
12:55 AM 64.2 °F 55.6 °F 73% 29.80 in 10.0 mi NE 5.8 mph - N/A   Clear
1:15 AM 63.5 °F 55.6 °F 75% 29.80 in 10.0 mi Calm Calm - N/A   Clear
1:35 AM 62.6 °F 55.6 °F 78% 29.80 in 10.0 mi NNE 5.8 mph - N/A   Clear
1:55 AM 62.1 °F 56.1 °F 81% 29.81 in 10.0 mi Calm Calm - N/A   Clear
2:15 AM 62.1 °F 55.9 °F 80% 29.83 in 10.0 mi Calm Calm - N/A   Clear
2:35 AM 62.8 °F 56.3 °F 79% 29.85 in 10.0 mi West 5.8 mph - N/A   Clear
2:55 AM 61.9 °F 56.3 °F 82% 29.85 in 10.0 mi West 4.6 mph - N/A   Clear
3:15 AM 61.3 °F 56.8 °F 85% 29.86 in 10.0 mi West 5.8 mph - N/A   Scattered Clouds
3:35 AM 61.7 °F 57.2 °F 85% 29.85 in 10.0 mi NNW 4.6 mph - N/A   Mostly Cloudy
3:55 AM 61.7 °F 56.3 °F 82% 29.86 in 10.0 mi NW 5.8 mph - N/A   Clear
4:15 AM 62.8 °F 56.3 °F 79% 29.86 in 10.0 mi NNW 8.1 mph - N/A   Clear
4:35 AM 63.3 °F 56.7 °F 79% 29.87 in 10.0 mi North 13.8 mph - N/A   Clear
4:55 AM 63.5 °F 55.8 °F 76% 29.88 in 10.0 mi North 17.3 mph - N/A   Clear
5:15 AM 63.5 °F 55.4 °F 75% 29.88 in 10.0 mi North 20.7 mph 24.2 mph N/A   Clear
5:35 AM 62.8 °F 53.4 °F 71% 29.90 in 10.0 mi North 24.2 mph 31.1 mph N/A   Clear
5:55 AM 61.9 °F 52.2 °F 70% 29.90 in 10.0 mi North 23.0 mph 27.6 mph N/A   Clear
6:15 AM 61.7 °F 52.2 °F 71% 29.91 in 10.0 mi North 21.9 mph - N/A   Clear
6:35 AM 60.8 °F 49.8 °F 67% 29.91 in 10.0 mi North 24.2 mph 29.9 mph N/A   Scattered Clouds
6:55 AM 59.9 °F 48.4 °F 66% 29.93 in 10.0 mi North 25.3 mph 32.2 mph N/A   Scattered Clouds
7:15 AM 59.7 °F 48.6 °F 67% 29.95 in 10.0 mi North 15.0 mph - N/A   Scattered Clouds
7:35 AM 59.9 °F 48.4 °F 66% 29.98 in 10.0 mi North 16.1 mph 20.7 mph N/A   Clear
7:55 AM 59.9 °F 48.2 °F 65% 30.00 in 10.0 mi North 17.3 mph 21.9 mph N/A   Scattered Clouds
8:15 AM 59.9 °F 47.5 °F 64% 30.03 in 10.0 mi NNW 20.7 mph 26.5 mph N/A   Mostly Cloudy
8:35 AM 59.4 °F 47.3 °F 64% 30.04 in 10.0 mi NNW 24.2 mph 31.1 mph N/A   Overcast
8:55 AM 58.3 °F 48.0 °F 69% 30.06 in 10.0 mi NNW 21.9 mph 33.4 mph N/A Rain Rain
9:15 AM 54.7 °F 50.0 °F 84% 30.09 in 7.0 mi NNW 20.7 mph 27.6 mph 0.07 in Rain Rain
9:35 AM 54.7 °F 50.9 °F 87% 30.10 in 10.0 mi NNW 18.4 mph 26.5 mph 0.10 in Rain Light Rain
9:55 AM 54.9 °F 51.1 °F 87% 30.09 in 10.0 mi North 15.0 mph 24.2 mph 0.10 in Rain Light Rain
10:15 AM 55.8 °F 51.1 °F 84% 30.04 in 10.0 mi NNE 17.3 mph 24.2 mph N/A Rain Light Rain
10:35 AM 58.5 °F 51.6 °F 78% 30.04 in 10.0 mi NNE 20.7 mph 26.5 mph N/A   Scattered Clouds
10:55 AM 58.8 °F 50.2 °F 73% 30.05 in 10.0 mi NNE 16.1 mph 24.2 mph N/A   Scattered Clouds
11:15 AM 59.9 °F 49.6 °F 69% 30.07 in 10.0 mi North 17.3 mph - N/A   Mostly Cloudy
12:15 PM 60.3 °F 50.0 °F 69% 30.09 in 10.0 mi NNW 12.7 mph - N/A   Mostly Cloudy
12:35 PM 60.3 °F 49.8 °F 68% 30.10 in 10.0 mi North 10.4 mph - N/A   Overcast
12:55 PM 61.3 °F 50.2 °F 67% 30.09 in 10.0 mi NNE 8.1 mph - N/A   Mostly Cloudy
1:35 PM 63.9 °F 50.4 °F 61% 30.07 in 10.0 mi North 10.4 mph - N/A   Mostly Cloudy
1:55 PM 64.8 °F 50.5 °F 60% 30.07 in 10.0 mi NNE 8.1 mph - N/A   Scattered Clouds
2:35 PM 66.7 °F 49.3 °F 53% 30.07 in 10.0 mi North 12.7 mph 17.3 mph N/A   Scattered Clouds
2:55 PM 67.5 °F 48.9 °F 51% 30.07 in 10.0 mi North 6.9 mph - N/A   Scattered Clouds
3:15 PM 66.7 °F 48.4 °F 52% 30.07 in 10.0 mi North 9.2 mph - N/A   Mostly Cloudy
3:35 PM 67.3 °F 47.7 °F 49% 30.07 in 10.0 mi NNW 10.4 mph - N/A   Overcast
4:15 PM 68.5 °F 46.0 °F 44% 30.07 in 10.0 mi NNW 10.4 mph 16.1 mph N/A   Clear
4:35 PM 68.5 °F 46.0 °F 44% 30.07 in 10.0 mi North 4.6 mph - N/A   Scattered Clouds
4:55 PM 68.4 °F 47.5 °F 47% 30.06 in 10.0 mi North 9.2 mph - N/A   Mostly Cloudy
5:15 PM 68.9 °F 46.4 °F 44% 30.06 in 10.0 mi North 5.8 mph - N/A   Mostly Cloudy
5:35 PM 68.9 °F 46.4 °F 44% 30.05 in 1.5 mi North 4.6 mph - N/A   Haze
5:55 PM 68.9 °F 46.8 °F 45% 30.05 in 10.0 mi Calm Calm - N/A   Clear
6:15 PM 67.5 °F 48.6 °F 51% 30.05 in 10.0 mi NNW 3.5 mph - N/A   Clear
6:55 PM 61.2 °F 52.3 °F 73% 30.06 in 10.0 mi NW 3.5 mph - N/A   Clear
7:35 PM 59.2 °F 48.6 °F 68% 30.07 in 10.0 mi NNW 8.1 mph - N/A   Clear
7:55 PM 57.6 °F 47.5 °F 69% 30.09 in 10.0 mi NNE 9.2 mph - N/A   Clear
8:15 PM 57.4 °F 48.6 °F 72% 30.09 in 10.0 mi NE 3.5 mph - N/A   Clear
8:35 PM 57.2 °F 48.4 °F 72% 30.11 in 10.0 mi Calm Calm - N/A   Clear
8:55 PM 56.1 °F 48.7 °F 76% 30.11 in 7.0 mi Calm Calm - N/A   Clear
9:15 PM 55.0 °F 48.4 °F 78% 30.12 in 10.0 mi Calm Calm - N/A   Clear
9:35 PM 52.7 °F 48.2 °F 85% 30.13 in 10.0 mi NE 6.9 mph - N/A   Clear
9:55 PM 55.0 °F 47.7 °F 76% 30.15 in 7.0 mi NE 6.9 mph - N/A   Clear
10:15 PM 53.8 °F 47.8 °F 80% 30.16 in 10.0 mi NE 4.6 mph - N/A   Clear
10:35 PM 54.0 °F 47.5 °F 79% 30.17 in 10.0 mi NE 3.5 mph - N/A   Clear
10:55 PM 52.2 °F 46.0 °F 80% 30.18 in 10.0 mi ENE 3.5 mph - N/A   Clear
11:15 PM 51.4 °F 45.5 °F 80% 30.18 in 10.0 mi ENE 4.6 mph - N/A   Clear
11:35 PM 50.2 °F 45.1 °F 83% 30.19 in 7.0 mi NE 3.5 mph - N/A   Clear
11:55 PM 49.6 °F 44.8 °F 83% 30.19 in 10.0 mi NNE 4.6 mph - N/A   Clear